User: anonymous   Login
Location: Unspecified
(0.0000°N, 0.0000°E)
Time: 18:50:11
(UTC+00:00)
Language:

CUSAT 1 - Orbit

View from above orbital plane
View from above orbital plane
View from above satellite
View from above satellite

Ground track
Ground track

The orbit data is extracted from the following two-line orbital elements,

1 39266U 13055B   19340.92582005 +.00002609 +00000-0 +68543-4 0  9995
2 39266 080.9818 141.9776 0634199 095.5323 271.8495 14.36150423321276
Epoch (UTC): 06 December 2019 22:13:10
Eccentricity: 0.0634199
inclination: 80.9818°
perigee height: 318 km
apogee height: 1224 km
right ascension of ascending node: 141.9776°
argument of perigee: 95.5323°
revolutions per day: 14.36150423
mean anomaly at epoch: 271.8495°
orbit number at epoch: 32127

The dashed part of the orbit path shows where the satellite is in the earth's shadow,  

DLR